weather.gov     
National Weather Service

Regional Weather Roundup
NWS Homepage
This page is being discontinued on March 12, 2014.
The same data is available at this site. Please update your bookmarks.
Thank you, and we apologize for the inconvenience.
Please send an email to SR-SRH.Webmaster@noaa.gov with any concerns.


Current Version
Previous Version:    01  02  03  04  05  06  07  08  09  10  11  12  13  14  15  16  17  18  19  20  21  22  23  24  25  26  27  28  29  30  
   31  32  33  34  35  36  37  38  39  40  41  42  43  44  45  46  47  48  49  50  51  52  53  54  55  56  57  58  59  60  
[Printable]
122
NZUS01 KOTX 020410
RWROTX
EASTERN WASHINGTON/NORTHERN IDAHO ROUNDUP
NATIONAL WEATHER SERVICE, SPOKANE WA
900 PM PDT MON SEP 01 2014

Note: "fair" indicated few or no clouds below 12,000 feet with no
significant weather and/or obstructions to visibility.

...NORTHEAST WASHINGTON AND NORTHERN IDAHO PANHANDLE...

CITY           SKY/WX    TMP DP  RH WIND       PRES   REMARKS
SPOKANE INTL   PTCLDY    64  39  39 S6        29.96S
SPOKANE DOWNTO CLEAR     61  38  42 N3        29.96R
COEUR D ALENE  CLEAR     61  39  44 S8        29.96S
DEER PARK      CLEAR     59  38  45 S7        29.95S
SANDPOINT      CLEAR     54  46  76 CALM      29.95S

...SOUTHEAST WASHINGTON AND SOUTHERN IDAHO PANHANDLE...

CITY           SKY/WX    TMP DP  RH WIND       PRES   REMARKS
WALLA WALLA    CLEAR     67  43  41 E8        29.94S
PULLMAN/MOSCOW CLEAR     55  38  52 CALM      30.00S
LEWISTON       CLEAR     72  41  32 CALM      29.95R
LOWELL           N/A     58  50  75 CALM      30.00R

...COLUMBIA BASIN...

CITY           SKY/WX    TMP DP  RH WIND       PRES   REMARKS
EPHRATA        CLEAR     72  39  30 NE7       29.90S
MOSES LAKE     CLEAR     70  50  49 SW8       29.90F
TRI CITIES     CLEAR     71  49  45 E5        29.89S
HERMISTON      CLEAR     66  47  50 S8        29.89S
PENDLETON      CLEAR     64  39  39 E9        29.94R

...EAST SLOPES CASCADES...

CITY           SKY/WX    TMP DP  RH WIND       PRES   REMARKS
THE DALLES     CLEAR     74  52  46 W14       29.91R
YAKIMA         CLEAR     71  48  43 N12       29.93S
ELLENSBURG     CLEAR     65  47  52 NW18G28   29.95S
STAMPEDE PASS  PTCLDY    49  46  90 VRB3      30.07S
WENATCHEE      CLEAR     70  40  33 NW13      29.92R
OMAK           CLEAR     66  39  37 E5        29.88R

...SOUTHERN BRITISH COLUMBIA...

CITY           SKY/WX    TMP DP  RH WIND       PRES   REMARKS
PENTICTON      MOCLDY    70  41  35 NW10      29.90S
CRANBROOK      PTCLDY    57  41  54 SW7       29.94S

...WESTERN MONTANA...

CITY           SKY/WX    TMP DP  RH WIND       PRES   REMARKS
MISSOULA       CLEAR     59  39  47 N6        30.02R

...NEIGHBORING CITIES...

CITY           SKY/WX    TMP DP  RH WIND       PRES   REMARKS
SEATTLE        MOCLDY    67  55  65 W5        30.00S
CALGARY        PTCLDY    50  39  66 NE8       29.83R




U.S. Dept. of Commerce
NOAA National Weather Service
1325 East West Highway
Silver Spring, MD 20910
E-mail: w-nws.webmaster@noaa.gov
Page last modified: May 16, 2007
NATIONAL WEATHER SERVICE: for Safety, for Work, for Fun - FOR LIFE